| time (UTC) | temp C | wind direction | speed KPH | gust KPH | rain 1hr cm | rain 24hr cm | rain mn cm | humidity % | barometer mb |
| 20260509063008 | 13 | 0 | 0.0 | 0.0 | 0.00 | 0.00 | 0.00 | 53 | 1007.0 |
| 20260509062504 | 14 | 0 | 0.0 | 0.0 | 0.00 | 0.00 | 0.00 | 53 | 1007.0 |
| 20260509062003 | 14 | 0 | 0.0 | 0.0 | 0.00 | 0.00 | 0.00 | 52 | 1007.0 |
| 20260509061508 | 14 | 356 | 0.0 | 1.6 | 0.00 | 0.00 | 0.00 | 51 | 1007.0 |
| 20260509061003 | 15 | 356 | 0.0 | 1.6 | 0.00 | 0.00 | 0.00 | 51 | 1006.9 |
| 20260509060503 | 15 | 356 | 0.0 | 1.6 | 0.00 | 0.00 | 0.00 | 50 | 1006.9 |
| 20260509060009 | 15 | 33 | 0.0 | 1.6 | 0.00 | 0.00 | 0.00 | 50 | 1006.9 |
| 20260509055003 | 15 | 33 | 0.0 | 1.6 | 0.00 | 0.00 | 0.00 | 49 | 1007.0 |
| 20260509054003 | 16 | 332 | 0.0 | 4.8 | 0.00 | 0.00 | 0.00 | 48 | 1006.9 |
| 20260509053009 | 16 | 355 | 0.0 | 4.8 | 0.00 | 0.00 | 0.00 | 48 | 1006.8 |
| 20260509052504 | 15 | 359 | 0.0 | 4.8 | 0.00 | 0.00 | 0.00 | 49 | 1006.8 |
| 20260509051508 | 15 | 356 | 0.0 | 4.8 | 0.00 | 0.00 | 0.00 | 52 | 1006.8 |
| 20260509051003 | 14 | 345 | 0.0 | 1.6 | 0.00 | 0.00 | 0.00 | 53 | 1006.8 |
| 20260509050505 | 14 | 345 | 0.0 | 1.6 | 0.00 | 0.00 | 0.00 | 54 | 1006.7 |
| 20260509050009 | 14 | 345 | 0.0 | 1.6 | 0.00 | 0.00 | 0.00 | 55 | 1006.5 |
| 20260509045504 | 14 | 345 | 0.0 | 1.6 | 0.00 | 0.00 | 0.00 | 54 | 1006.6 |
| 20260509044508 | 13 | 345 | 0.0 | 1.6 | 0.00 | 0.00 | 0.00 | 55 | 1006.5 |
| 20260509044003 | 13 | 345 | 0.0 | 1.6 | 0.00 | 0.00 | 0.00 | 57 | 1006.5 |
| 20260509043504 | 13 | 345 | 0.0 | 1.6 | 0.00 | 0.00 | 0.00 | 56 | 1006.5 |
| 20260509043009 | 13 | 345 | 0.0 | 1.6 | 0.00 | 0.00 | 0.00 | 58 | 1006.5 |
| 20260509042503 | 14 | 345 | 0.0 | 1.6 | 0.00 | 0.00 | 0.00 | 59 | 1006.4 |
| 20260509042003 | 14 | 0 | 0.0 | 0.0 | 0.00 | 0.00 | 0.00 | 57 | 1006.4 |
| 20260509041508 | 15 | 345 | 0.0 | 1.6 | 0.00 | 0.00 | 0.00 | 55 | 1006.3 |
| 20260509041003 | 15 | 345 | 0.0 | 1.6 | 0.00 | 0.00 | 0.00 | 55 | 1006.5 |
| 20260509040504 | 15 | 345 | 0.0 | 1.6 | 0.00 | 0.00 | 0.00 | 53 | 1006.4 |
| 20260509040008 | 15 | 345 | 0.0 | 1.6 | 0.00 | 0.00 | 0.00 | 54 | 1006.4 |
| 20260509035503 | 14 | 345 | 0.0 | 1.6 | 0.00 | 0.00 | 0.00 | 54 | 1006.4 |
| 20260509035005 | 15 | 0 | 0.0 | 0.0 | 0.00 | 0.00 | 0.00 | 56 | 1006.2 |
| 20260509034508 | 15 | 0 | 0.0 | 0.0 | 0.00 | 0.00 | 0.00 | 55 | 1006.2 |
| 20260509034005 | 15 | 0 | 0.0 | 0.0 | 0.00 | 0.00 | 0.00 | 54 | 1006.2 |
| 20260509033503 | 16 | 0 | 0.0 | 0.0 | 0.00 | 0.00 | 0.00 | 52 | 1006.1 |
| 20260509033008 | 16 | 345 | 0.0 | 1.6 | 0.00 | 0.00 | 0.00 | 49 | 1006.1 |
| 20260509032504 | 16 | 345 | 0.0 | 1.6 | 0.00 | 0.00 | 0.00 | 50 | 1006.1 |
| 20260509032004 | 16 | 345 | 0.0 | 1.6 | 0.00 | 0.00 | 0.00 | 46 | 1006.0 |
| 20260509031508 | 16 | 345 | 0.0 | 1.6 | 0.00 | 0.00 | 0.00 | 49 | 1006.0 |
| 20260509031003 | 16 | 0 | 0.0 | 0.0 | 0.00 | 0.00 | 0.00 | 48 | 1005.9 |
| 20260509030503 | 16 | 0 | 0.0 | 0.0 | 0.00 | 0.00 | 0.00 | 47 | 1005.8 |
| 20260509030008 | 16 | 0 | 0.0 | 0.0 | 0.00 | 0.00 | 0.00 | 47 | 1005.8 |
| 20260509025004 | 17 | 0 | 0.0 | 0.0 | 0.00 | 0.00 | 0.00 | 46 | 1005.5 |
| 20260509024003 | 17 | 0 | 0.0 | 0.0 | 0.00 | 0.00 | 0.00 | 43 | 1005.5 |
| 20260509023503 | 17 | 0 | 0.0 | 0.0 | 0.00 | 0.00 | 0.00 | 44 | 1005.5 |
| 20260509023008 | 17 | 0 | 0.0 | 0.0 | 0.00 | 0.00 | 0.00 | 43 | 1005.4 |
| 20260509022505 | 18 | 0 | 0.0 | 0.0 | 0.00 | 0.00 | 0.00 | 42 | 1005.3 |
| 20260509022003 | 18 | 0 | 0.0 | 0.0 | 0.00 | 0.00 | 0.00 | 41 | 1005.3 |
| 20260509021508 | 18 | 0 | 0.0 | 0.0 | 0.00 | 0.00 | 0.00 | 40 | 1005.2 |
| 20260509021003 | 19 | 0 | 0.0 | 0.0 | 0.00 | 0.00 | 0.00 | 40 | 1005.1 |
| 20260509020504 | 19 | 0 | 0.0 | 0.0 | 0.00 | 0.00 | 0.00 | 39 | 1005.1 |
| 20260509020008 | 20 | 0 | 0.0 | 0.0 | 0.00 | 0.00 | 0.00 | 38 | 1005.0 |
| 20260509015503 | 20 | 0 | 0.0 | 0.0 | 0.00 | 0.00 | 0.00 | 38 | 1005.0 |
| 20260509015003 | 20 | 345 | 0.0 | 1.6 | 0.00 | 0.00 | 0.00 | 38 | 1005.0 |
| 20260509014508 | 21 | 345 | 0.0 | 1.6 | 0.00 | 0.00 | 0.00 | 37 | 1004.9 |
| 20260509014004 | 21 | 345 | 0.0 | 1.6 | 0.00 | 0.00 | 0.00 | 35 | 1004.8 |
| 20260509013503 | 22 | 345 | 0.0 | 1.6 | 0.00 | 0.00 | 0.00 | 34 | 1004.8 |
| 20260509013008 | 22 | 345 | 0.0 | 1.6 | 0.00 | 0.00 | 0.00 | 32 | 1004.8 |
| 20260509012503 | 23 | 345 | 0.0 | 1.6 | 0.00 | 0.00 | 0.00 | 32 | 1004.7 |
| 20260509012004 | 23 | 328 | 0.0 | 3.2 | 0.00 | 0.00 | 0.00 | 32 | 1004.7 |
| 20260509011508 | 23 | 296 | 0.0 | 4.8 | 0.00 | 0.00 | 0.00 | 31 | 1004.6 |
| 20260509011003 | 23 | 294 | 1.6 | 4.8 | 0.00 | 0.00 | 0.00 | 30 | 1004.6 |
| 20260509005503 | 25 | 315 | 1.6 | 4.8 | 0.00 | 0.00 | 0.00 | 30 | 1004.5 |
| 20260509005004 | 25 | 310 | 1.6 | 11.3 | 0.00 | 0.00 | 0.00 | 29 | 1004.5 |
| 20260509004509 | 25 | 334 | 1.6 | 11.3 | 0.00 | 0.00 | 0.00 | 29 | 1004.5 |
| 20260509004003 | 25 | 341 | 1.6 | 9.7 | 0.00 | 0.00 | 0.00 | 29 | 1004.4 |
| 20260509003503 | 26 | 343 | 3.2 | 9.7 | 0.00 | 0.00 | 0.00 | 29 | 1004.4 |
| 20260509003009 | 26 | 11 | 3.2 | 14.5 | 0.00 | 0.00 | 0.00 | 28 | 1004.4 |
| 20260509002503 | 26 | 6 | 3.2 | 14.5 | 0.00 | 0.00 | 0.00 | 29 | 1004.4 |
| 20260509001508 | 26 | 307 | 3.2 | 11.3 | 0.00 | 0.00 | 0.00 | 29 | 1004.3 |
| 20260509001003 | 26 | 322 | 1.6 | 11.3 | 0.00 | 0.00 | 0.00 | 29 | 1004.3 |
| 20260509000504 | 26 | 327 | 1.6 | 6.4 | 0.00 | 0.00 | 0.00 | 30 | 1004.3 |
| 20260508235503 | 26 | 343 | 3.2 | 11.3 | 0.00 | 0.00 | 0.00 | 31 | 1004.3 |
| 20260508235005 | 26 | 334 | 1.6 | 9.7 | 0.00 | 0.00 | 0.00 | 31 | 1004.3 |
| 20260508234003 | 26 | 317 | 1.6 | 8.0 | 0.00 | 0.00 | 0.00 | 31 | 1004.4 |
| 20260508233503 | 25 | 321 | 3.2 | 11.3 | 0.00 | 0.00 | 0.00 | 31 | 1004.4 |
| 20260508233009 | 25 | 290 | 3.2 | 11.3 | 0.00 | 0.00 | 0.00 | 32 | 1004.5 |
| 20260508232504 | 25 | 224 | 3.2 | 8.0 | 0.00 | 0.00 | 0.00 | 33 | 1004.4 |
| 20260508232004 | 25 | 215 | 1.6 | 8.0 | 0.00 | 0.00 | 0.00 | 33 | 1004.4 |
| 20260508231508 | 25 | 235 | 1.6 | 11.3 | 0.00 | 0.00 | 0.00 | 33 | 1004.4 |
| 20260508231005 | 25 | 242 | 4.8 | 11.3 | 0.00 | 0.00 | 0.00 | 31 | 1004.5 |
| 20260508230008 | 25 | 237 | 4.8 | 11.3 | 0.00 | 0.00 | 0.00 | 32 | 1004.3 |
| 20260508225503 | 26 | 233 | 4.8 | 11.3 | 0.00 | 0.00 | 0.00 | 32 | 1004.3 |
| 20260508225003 | 26 | 233 | 3.2 | 16.1 | 0.00 | 0.00 | 0.00 | 31 | 1004.3 |
| 20260508224508 | 26 | 262 | 1.6 | 16.1 | 0.00 | 0.00 | 0.00 | 31 | 1004.4 |
| 20260508224004 | 26 | 300 | 1.6 | 9.7 | 0.00 | 0.00 | 0.00 | 30 | 1004.5 |
| 20260508223504 | 26 | 251 | 1.6 | 9.7 | 0.00 | 0.00 | 0.00 | 32 | 1004.6 |
| 20260508223008 | 26 | 232 | 1.6 | 6.4 | 0.00 | 0.00 | 0.00 | 32 | 1004.5 |
| 20260508222503 | 25 | 234 | 3.2 | 6.4 | 0.00 | 0.00 | 0.00 | 32 | 1004.6 |
| 20260508222003 | 25 | 234 | 3.2 | 8.0 | 0.00 | 0.00 | 0.00 | 32 | 1004.7 |
| 20260508221508 | 25 | 228 | 3.2 | 8.0 | 0.00 | 0.00 | 0.00 | 33 | 1004.7 |
| 20260508221003 | 25 | 202 | 4.8 | 9.7 | 0.00 | 0.00 | 0.00 | 33 | 1004.8 |
| 20260508220504 | 25 | 195 | 4.8 | 12.9 | 0.00 | 0.00 | 0.00 | 33 | 1004.9 |
| 20260508214508 | 25 | 188 | 3.2 | 8.0 | 0.00 | 0.00 | 0.00 | 36 | 1005.0 |
| 20260508214003 | 24 | 189 | 3.2 | 9.7 | 0.00 | 0.00 | 0.00 | 33 | 1005.1 |
| 20260508213008 | 25 | 216 | 3.2 | 6.4 | 0.00 | 0.00 | 0.00 | 34 | 1005.2 |
| 20260508212004 | 24 | 175 | 1.6 | 4.8 | 0.00 | 0.00 | 0.00 | 33 | 1005.3 |
| 20260508211508 | 25 | 205 | 1.6 | 6.4 | 0.00 | 0.00 | 0.00 | 33 | 1005.3 |
| 20260508211004 | 25 | 216 | 3.2 | 9.7 | 0.00 | 0.00 | 0.00 | 33 | 1005.4 |
| 20260508210504 | 25 | 199 | 3.2 | 9.7 | 0.00 | 0.00 | 0.00 | 33 | 1005.5 |
| 20260508210009 | 25 | 195 | 3.2 | 8.0 | 0.00 | 0.00 | 0.00 | 34 | 1005.5 |
| 20260508205503 | 25 | 240 | 1.6 | 4.8 | 0.00 | 0.00 | 0.00 | 32 | 1005.6 |
| 20260508205004 | 25 | 239 | 1.6 | 4.8 | 0.00 | 0.00 | 0.00 | 34 | 1005.8 |
| 20260508204508 | 25 | 337 | 1.6 | 8.0 | 0.00 | 0.00 | 0.00 | 32 | 1005.8 |
| 20260508204004 | 25 | 335 | 3.2 | 8.0 | 0.00 | 0.00 | 0.00 | 35 | 1005.9 |
| 20260508203503 | 25 | 298 | 3.2 | 9.7 | 0.00 | 0.00 | 0.00 | 31 | 1006.0 |
| 20260508203008 | 25 | 259 | 3.2 | 9.7 | 0.00 | 0.00 | 0.00 | 32 | 1006.1 |
| 20260508202505 | 25 | 216 | 4.8 | 6.4 | 0.00 | 0.00 | 0.00 | 32 | 1006.0 |
| 20260508202003 | 25 | 196 | 4.8 | 8.0 | 0.00 | 0.00 | 0.00 | 33 | 1006.0 |
| 20260508201508 | 25 | 197 | 3.2 | 8.0 | 0.00 | 0.00 | 0.00 | 33 | 1006.2 |
| 20260508201003 | 25 | 192 | 3.2 | 6.4 | 0.00 | 0.00 | 0.00 | 31 | 1006.2 |
| 20260508200008 | 25 | 191 | 3.2 | 9.7 | 0.00 | 0.00 | 0.00 | 31 | 1006.4 |
| 20260508195503 | 25 | 206 | 3.2 | 9.7 | 0.00 | 0.00 | 0.00 | 37 | 1006.6 |
| 20260508195004 | 24 | 215 | 3.2 | 4.8 | 0.00 | 0.00 | 0.00 | 31 | 1006.6 |
| 20260508194508 | 25 | 193 | 1.6 | 6.4 | 0.00 | 0.00 | 0.00 | 34 | 1006.7 |
| 20260508194004 | 25 | 192 | 3.2 | 9.7 | 0.00 | 0.00 | 0.00 | 32 | 1006.7 |
| 20260508193504 | 25 | 193 | 3.2 | 9.7 | 0.00 | 0.00 | 0.00 | 30 | 1006.8 |
| 20260508192504 | 25 | 205 | 1.6 | 4.8 | 0.00 | 0.00 | 0.00 | 31 | 1006.8 |
| 20260508192003 | 25 | 221 | 1.6 | 4.8 | 0.00 | 0.00 | 0.00 | 33 | 1006.8 |
| 20260508191509 | 25 | 206 | 1.6 | 3.2 | 0.00 | 0.00 | 0.00 | 31 | 1006.9 |
| 20260508191003 | 25 | 192 | 1.6 | 6.4 | 0.00 | 0.00 | 0.00 | 30 | 1006.9 |
| 20260508190504 | 25 | 190 | 3.2 | 8.0 | 0.00 | 0.00 | 0.00 | 29 | 1007.0 |
| 20260508190008 | 25 | 188 | 3.2 | 8.0 | 0.00 | 0.00 | 0.00 | 30 | 1007.1 |
| 20260508185504 | 25 | 191 | 3.2 | 8.0 | 0.00 | 0.00 | 0.00 | 30 | 1007.1 |
| 20260508184508 | 25 | 230 | 1.6 | 4.8 | 0.00 | 0.00 | 0.00 | 30 | 1007.2 |
| 20260508184003 | 25 | 203 | 3.2 | 11.3 | 0.00 | 0.00 | 0.00 | 31 | 1007.3 |
| 20260508183503 | 24 | 189 | 4.8 | 11.3 | 0.00 | 0.00 | 0.00 | 32 | 1007.2 |
| 20260508183008 | 24 | 187 | 3.2 | 8.0 | 0.00 | 0.00 | 0.00 | 31 | 1007.4 |
| 20260508182003 | 24 | 190 | 1.6 | 6.4 | 0.00 | 0.00 | 0.00 | 32 | 1007.6 |
| 20260508181508 | 24 | 193 | 1.6 | 6.4 | 0.00 | 0.00 | 0.00 | 32 | 1007.6 |
| 20260508181004 | 23 | 199 | 3.2 | 6.4 | 0.00 | 0.00 | 0.00 | 33 | 1007.7 |
| 20260508180503 | 23 | 195 | 3.2 | 9.7 | 0.00 | 0.00 | 0.00 | 38 | 1007.7 |
| 20260508180008 | 23 | 194 | 3.2 | 9.7 | 0.00 | 0.00 | 0.00 | 36 | 1007.7 |
| 20260508175504 | 23 | 200 | 1.6 | 4.8 | 0.00 | 0.00 | 0.00 | 35 | 1007.8 |
| 20260508175003 | 23 | 189 | 1.6 | 4.8 | 0.00 | 0.00 | 0.00 | 34 | 1007.9 |
| 20260508174508 | 23 | 165 | 1.6 | 3.2 | 0.00 | 0.00 | 0.00 | 35 | 1007.9 |
| 20260508173504 | 22 | 192 | 1.6 | 6.4 | 0.00 | 0.00 | 0.00 | 37 | 1008.0 |
| 20260508173009 | 22 | 195 | 3.2 | 6.4 | 0.00 | 0.00 | 0.00 | 35 | 1008.0 |
| 20260508172503 | 22 | 194 | 3.2 | 6.4 | 0.00 | 0.00 | 0.00 | 35 | 1008.1 |
| 20260508172003 | 22 | 192 | 3.2 | 6.4 | 0.00 | 0.00 | 0.00 | 37 | 1008.2 |
| 20260508171509 | 22 | 192 | 3.2 | 6.4 | 0.00 | 0.00 | 0.00 | 37 | 1008.2 |
| 20260508171003 | 22 | 201 | 0.0 | 4.8 | 0.00 | 0.00 | 0.00 | 38 | 1008.2 |
| 20260508170503 | 22 | 328 | 0.0 | 3.2 | 0.00 | 0.00 | 0.00 | 46 | 1008.3 |
| 20260508170009 | 22 | 349 | 0.0 | 1.6 | 0.00 | 0.00 | 0.00 | 40 | 1008.4 |
| 20260508165503 | 21 | 347 | 0.0 | 1.6 | 0.00 | 0.00 | 0.00 | 43 | 1008.3 |
| 20260508165004 | 21 | 347 | 0.0 | 1.6 | 0.00 | 0.00 | 0.00 | 43 | 1008.4 |
| 20260508164507 | 21 | 322 | 0.0 | 1.6 | 0.00 | 0.00 | 0.00 | 42 | 1008.4 |
| 20260508164003 | 21 | 326 | 0.0 | 1.6 | 0.00 | 0.00 | 0.00 | 41 | 1008.4 |
| 20260508163503 | 21 | 340 | 0.0 | 3.2 | 0.00 | 0.00 | 0.00 | 40 | 1008.4 |
| 20260508163008 | 21 | 339 | 0.0 | 3.2 | 0.00 | 0.00 | 0.00 | 41 | 1008.5 |
| 20260508162005 | 20 | 207 | 1.6 | 4.8 | 0.00 | 0.00 | 0.00 | 43 | 1008.4 |
| 20260508161508 | 20 | 189 | 1.6 | 4.8 | 0.00 | 0.00 | 0.00 | 43 | 1008.5 |
| 20260508161003 | 20 | 183 | 1.6 | 6.4 | 0.00 | 0.00 | 0.00 | 45 | 1008.5 |
| 20260508160503 | 20 | 196 | 3.2 | 9.7 | 0.00 | 0.00 | 0.00 | 46 | 1008.4 |
| 20260508160009 | 20 | 194 | 3.2 | 9.7 | 0.00 | 0.00 | 0.00 | 47 | 1008.4 |
| 20260508155503 | 19 | 190 | 3.2 | 6.4 | 0.00 | 0.00 | 0.00 | 47 | 1008.5 |
| 20260508155004 | 19 | 191 | 1.6 | 6.4 | 0.00 | 0.00 | 0.00 | 49 | 1008.5 |
| 20260508154508 | 18 | 182 | 1.6 | 3.2 | 0.00 | 0.00 | 0.00 | 51 | 1008.5 |
| 20260508154003 | 18 | 191 | 3.2 | 6.4 | 0.00 | 0.00 | 0.00 | 49 | 1008.6 |
| 20260508153503 | 18 | 192 | 3.2 | 6.4 | 0.00 | 0.00 | 0.00 | 50 | 1008.6 |
| 20260508153008 | 18 | 192 | 3.2 | 6.4 | 0.00 | 0.00 | 0.00 | 50 | 1008.6 |
| 20260508152504 | 17 | 184 | 3.2 | 6.4 | 0.00 | 0.00 | 0.00 | 51 | 1008.6 |
| 20260508152003 | 17 | 182 | 3.2 | 6.4 | 0.00 | 0.00 | 0.00 | 53 | 1008.7 |
| 20260508151508 | 17 | 187 | 1.6 | 6.4 | 0.00 | 0.00 | 0.00 | 51 | 1008.8 |
| 20260508151003 | 17 | 191 | 1.6 | 6.4 | 0.00 | 0.00 | 0.00 | 56 | 1008.8 |
| 20260508150008 | 17 | 184 | 3.2 | 6.4 | 0.00 | 0.00 | 0.00 | 57 | 1008.9 |
| 20260508145505 | 17 | 189 | 3.2 | 8.0 | 0.00 | 0.00 | 0.00 | 55 | 1008.7 |
| 20260508145003 | 16 | 192 | 3.2 | 8.0 | 0.00 | 0.00 | 0.00 | 57 | 1008.6 |
| 20260508144508 | 16 | 192 | 1.6 | 4.8 | 0.00 | 0.00 | 0.00 | 59 | 1008.7 |
| 20260508144005 | 16 | 190 | 1.6 | 4.8 | 0.00 | 0.00 | 0.00 | 56 | 1008.8 |
| 20260508143503 | 16 | 198 | 1.6 | 4.8 | 0.00 | 0.00 | 0.00 | 57 | 1008.9 |
| 20260508143008 | 16 | 207 | 1.6 | 4.8 | 0.00 | 0.00 | 0.00 | 58 | 1009.0 |
| 20260508142504 | 15 | 196 | 1.6 | 4.8 | 0.00 | 0.00 | 0.00 | 58 | 1009.0 |
| 20260508142004 | 15 | 187 | 3.2 | 4.8 | 0.00 | 0.00 | 0.00 | 59 | 1009.1 |
| 20260508141508 | 15 | 183 | 1.6 | 4.8 | 0.00 | 0.00 | 0.00 | 59 | 1009.1 |
| 20260508141003 | 14 | 346 | 0.0 | 3.2 | 0.00 | 0.00 | 0.00 | 61 | 1009.1 |
| 20260508140504 | 14 | 0 | 0.0 | 0.0 | 0.00 | 0.00 | 0.00 | 66 | 1009.0 |
| 20260508140008 | 13 | 0 | 0.0 | 0.0 | 0.00 | 0.00 | 0.00 | 68 | 1009.1 |
| 20260508135503 | 13 | 0 | 0.0 | 0.0 | 0.00 | 0.00 | 0.00 | 71 | 1009.0 |
| 20260508135003 | 12 | 0 | 0.0 | 0.0 | 0.00 | 0.00 | 0.00 | 72 | 1009.1 |
| 20260508134508 | 12 | 0 | 0.0 | 0.0 | 0.00 | 0.00 | 0.00 | 74 | 1009.1 |
| 20260508134003 | 12 | 0 | 0.0 | 0.0 | 0.00 | 0.00 | 0.00 | 73 | 1009.1 |
| 20260508133505 | 12 | 0 | 0.0 | 0.0 | 0.00 | 0.00 | 0.00 | 75 | 1009.1 |
| 20260508133008 | 11 | 0 | 0.0 | 0.0 | 0.00 | 0.00 | 0.00 | 75 | 1009.2 |
| 20260508132503 | 11 | 0 | 0.0 | 0.0 | 0.00 | 0.00 | 0.00 | 75 | 1009.2 |
| 20260508132003 | 11 | 0 | 0.0 | 0.0 | 0.00 | 0.00 | 0.00 | 74 | 1009.1 |
| 20260508131508 | 11 | 0 | 0.0 | 0.0 | 0.00 | 0.00 | 0.00 | 73 | 1009.2 |
| 20260508131004 | 11 | 0 | 0.0 | 0.0 | 0.00 | 0.00 | 0.00 | 72 | 1009.0 |
| 20260508130504 | 11 | 0 | 0.0 | 0.0 | 0.00 | 0.00 | 0.00 | 72 | 1008.9 |
| 20260508130008 | 11 | 0 | 0.0 | 0.0 | 0.00 | 0.00 | 0.00 | 73 | 1008.8 |
| 20260508125503 | 11 | 0 | 0.0 | 0.0 | 0.00 | 0.00 | 0.00 | 72 | 1008.8 |
| 20260508125004 | 11 | 0 | 0.0 | 0.0 | 0.00 | 0.00 | 0.00 | 72 | 1008.7 |
| 20260508124509 | 11 | 0 | 0.0 | 0.0 | 0.00 | 0.00 | 0.00 | 71 | 1008.5 |
| 20260508124004 | 11 | 0 | 0.0 | 0.0 | 0.00 | 0.00 | 0.00 | 71 | 1008.5 |
| 20260508123503 | 11 | 0 | 0.0 | 0.0 | 0.00 | 0.00 | 0.00 | 70 | 1008.5 |
| 20260508123008 | 11 | 0 | 0.0 | 0.0 | 0.00 | 0.00 | 0.00 | 70 | 1008.5 |
| 20260508122503 | 11 | 0 | 0.0 | 0.0 | 0.00 | 0.00 | 0.00 | 69 | 1008.6 |
| 20260508122004 | 11 | 0 | 0.0 | 0.0 | 0.00 | 0.00 | 0.00 | 69 | 1008.6 |
| 20260508121508 | 11 | 0 | 0.0 | 0.0 | 0.00 | 0.00 | 0.00 | 68 | 1008.6 |
| 20260508121003 | 11 | 0 | 0.0 | 0.0 | 0.00 | 0.00 | 0.00 | 68 | 1008.7 |
| 20260508120008 | 11 | 0 | 0.0 | 0.0 | 0.00 | 0.00 | 0.00 | 66 | 1008.6 |
| 20260508115503 | 11 | 0 | 0.0 | 0.0 | 0.00 | 0.00 | 0.00 | 66 | 1008.6 |
| 20260508115005 | 11 | 334 | 0.0 | 3.2 | 0.00 | 0.00 | 0.00 | 67 | 1008.7 |
| 20260508114509 | 11 | 352 | 0.0 | 3.2 | 0.00 | 0.00 | 0.00 | 66 | 1008.7 |
| 20260508114003 | 10 | 17 | 0.0 | 3.2 | 0.00 | 0.00 | 0.00 | 66 | 1008.8 |
| 20260508113008 | 10 | 0 | 0.0 | 0.0 | 0.00 | 0.00 | 0.00 | 71 | 1008.9 |
| 20260508112505 | 10 | 0 | 0.0 | 0.0 | 0.00 | 0.00 | 0.00 | 71 | 1008.7 |
| 20260508112003 | 10 | 0 | 0.0 | 0.0 | 0.00 | 0.00 | 0.00 | 69 | 1008.5 |
| 20260508111003 | 10 | 0 | 0.0 | 0.0 | 0.00 | 0.00 | 0.00 | 69 | 1008.6 |
| 20260508110504 | 10 | 0 | 0.0 | 0.0 | 0.00 | 0.00 | 0.00 | 69 | 1008.7 |
| 20260508110008 | 10 | 0 | 0.0 | 0.0 | 0.00 | 0.00 | 0.00 | 69 | 1008.7 |
| 20260508105503 | 10 | 0 | 0.0 | 0.0 | 0.00 | 0.00 | 0.00 | 68 | 1008.6 |
| 20260508103503 | 10 | 0 | 0.0 | 0.0 | 0.00 | 0.00 | 0.00 | 65 | 1008.8 |
| 20260508103008 | 10 | 0 | 0.0 | 0.0 | 0.00 | 0.00 | 0.00 | 66 | 1008.7 |
| 20260508102503 | 10 | 37 | 0.0 | 1.6 | 0.00 | 0.00 | 0.00 | 66 | 1008.8 |
| 20260508102004 | 10 | 37 | 0.0 | 3.2 | 0.00 | 0.00 | 0.00 | 65 | 1008.6 |
| 20260508101508 | 10 | 37 | 0.0 | 3.2 | 0.00 | 0.00 | 0.00 | 64 | 1008.7 |
| 20260508101004 | 10 | 0 | 0.0 | 0.0 | 0.00 | 0.00 | 0.00 | 65 | 1009.1 |
| 20260508100504 | 10 | 0 | 0.0 | 0.0 | 0.00 | 0.00 | 0.00 | 65 | 1009.2 |
| 20260508100008 | 10 | 37 | 0.0 | 1.6 | 0.00 | 0.00 | 0.00 | 64 | 1009.3 |
| 20260508095505 | 10 | 37 | 0.0 | 1.6 | 0.00 | 0.00 | 0.00 | 66 | 1009.3 |
| 20260508095004 | 10 | 36 | 0.0 | 1.6 | 0.00 | 0.00 | 0.00 | 66 | 1009.1 |
| 20260508094508 | 10 | 36 | 0.0 | 1.6 | 0.00 | 0.00 | 0.00 | 67 | 1009.1 |
| 20260508094003 | 10 | 36 | 0.0 | 1.6 | 0.00 | 0.00 | 0.00 | 65 | 1009.0 |
| 20260508093504 | 10 | 36 | 0.0 | 1.6 | 0.00 | 0.00 | 0.00 | 65 | 1009.1 |
| 20260508093008 | 11 | 0 | 0.0 | 0.0 | 0.00 | 0.00 | 0.00 | 65 | 1009.1 |
| 20260508092504 | 11 | 0 | 0.0 | 0.0 | 0.00 | 0.00 | 0.00 | 63 | 1009.1 |
| 20260508092003 | 11 | 0 | 0.0 | 0.0 | 0.00 | 0.00 | 0.00 | 61 | 1009.1 |
| 20260508091508 | 11 | 36 | 0.0 | 1.6 | 0.00 | 0.00 | 0.00 | 61 | 1009.1 |
| 20260508091003 | 11 | 36 | 0.0 | 1.6 | 0.00 | 0.00 | 0.00 | 61 | 1009.2 |
| 20260508090503 | 12 | 37 | 0.0 | 1.6 | 0.00 | 0.00 | 0.00 | 61 | 1009.2 |
| 20260508090008 | 12 | 37 | 0.0 | 1.6 | 0.00 | 0.00 | 0.00 | 60 | 1009.0 |
| 20260508085504 | 12 | 0 | 0.0 | 0.0 | 0.00 | 0.00 | 0.00 | 60 | 1009.2 |
| 20260508085004 | 12 | 37 | 0.0 | 1.6 | 0.00 | 0.00 | 0.00 | 60 | 1009.3 |
| 20260508084508 | 12 | 37 | 0.0 | 1.6 | 0.00 | 0.00 | 0.00 | 61 | 1009.1 |
| 20260508084003 | 12 | 37 | 0.0 | 1.6 | 0.00 | 0.00 | 0.00 | 60 | 1009.0 |
| 20260508082503 | 12 | 0 | 0.0 | 0.0 | 0.00 | 0.00 | 0.00 | 58 | 1009.3 |
| 20260508082004 | 12 | 0 | 0.0 | 0.0 | 0.00 | 0.00 | 0.00 | 55 | 1009.3 |
| 20260508081507 | 12 | 37 | 0.0 | 1.6 | 0.00 | 0.00 | 0.00 | 59 | 1009.0 |
| 20260508080504 | 12 | 37 | 0.0 | 1.6 | 0.00 | 0.00 | 0.00 | 61 | 1009.0 |
| 20260508080009 | 12 | 37 | 0.0 | 1.6 | 0.00 | 0.00 | 0.00 | 61 | 1009.4 |
| 20260508075503 | 12 | 37 | 0.0 | 1.6 | 0.00 | 0.00 | 0.00 | 59 | 1009.4 |
| 20260508074508 | 12 | 37 | 0.0 | 1.6 | 0.00 | 0.00 | 0.00 | 60 | 1009.4 |
| 20260508074003 | 12 | 0 | 0.0 | 0.0 | 0.00 | 0.00 | 0.00 | 59 | 1009.6 |
| 20260508073008 | 12 | 36 | 0.0 | 1.6 | 0.00 | 0.00 | 0.00 | 60 | 1009.4 |
| 20260508072504 | 12 | 36 | 0.0 | 1.6 | 0.00 | 0.00 | 0.00 | 60 | 1009.4 |
| 20260508072004 | 12 | 36 | 0.0 | 1.6 | 0.00 | 0.00 | 0.00 | 60 | 1009.3 |
| 20260508071508 | 12 | 31 | 0.0 | 1.6 | 0.00 | 0.00 | 0.00 | 56 | 1009.0 |
| 20260508071003 | 12 | 25 | 0.0 | 1.6 | 0.00 | 0.00 | 0.00 | 58 | 1008.8 |
| 20260508070503 | 12 | 0 | 0.0 | 0.0 | 0.00 | 0.00 | 0.00 | 61 | 1009.1 |
| 20260508070009 | 12 | 0 | 0.0 | 0.0 | 0.00 | 0.00 | 0.00 | 63 | 1009.1 |
| 20260508065503 | 12 | 25 | 0.0 | 1.6 | 0.00 | 0.00 | 0.00 | 61 | 1009.4 |
| 20260508065003 | 12 | 25 | 0.0 | 1.6 | 0.00 | 0.00 | 0.00 | 61 | 1009.4 |
| 20260508064004 | 12 | 0 | 0.0 | 0.0 | 0.00 | 0.00 | 0.00 | 66 | 1009.5 |
| 20260508063503 | 11 | 0 | 0.0 | 0.0 | 0.00 | 0.00 | 0.00 | 64 | 1009.5 |